Flag for U.S.A. Weather past 2 weeks in Savannah, Georgia, U.S.A.

Now
29 °F

Clear.


Feels Like: 24 °F
Forecast: 36 / 58 °F
Wind: 5 mph from Northwest

Location: Hunter U. S. Army Airfield

Current Time: Jan 29, 2015 at 7:50:17 AM

Latest Report: Jan 29, 2015 at 6:58 AM


Visibility: 10 mi

Pressure: 30.36 "Hg

Humidity: 93%

Dew point: 28 °F

Location of SavannahLocation

Historic Weather in Savannah — Graph

°F

Savannah temperature yesterday

Maximum temperature yesterday: 54 °F (at 2:58 PM)
Minimum temperature yesterday: 33 °F (at 11:58 PM)
Average temperature yesterday: 42 °F

Past Weeks' High & Low Weather Summary

 TemperatureHumidityPressure
High73 °F (Jan 21, 2:58 PM)100% (Jan 14, 6:58 AM)30.36 "Hg (Jan 14, 6:58 AM)
Low29 °F (Jan 29, 6:58 AM)23% (Jan 19, 2:58 PM)29.59 "Hg (Jan 24, 4:58 AM)
Average49 °F75%30.05 "Hg
* Reported Jan 14 6:58 AM — Jan 29 6:58 AM, Savannah, Weather by CustomWeather, © 2014

Note: Actual official high and low records may vary slightly from our data, if they occured in-between our weather recording intervals... More about our weather records

Advertising

Savannah weather history for previous 24 hours

 ConditionsComfort  
Time TempWeatherWind HumidityBarometerVisibility
6:58 AM
Jan 29
29 °FClear.5 mph93%30.36 "Hg10 mi
5:58 AM30 °FClear.No wind92%30.33 "Hg10 mi
4:58 AM31 °FClear.2 mph88%30.32 "Hg10 mi
3:58 AM32 °FClear.No wind89%30.32 "Hg10 mi
2:58 AM30 °FClear.1 mph89%30.32 "Hg10 mi
1:58 AM32 °FClear.No wind83%30.31 "Hg10 mi
12:58 AM32 °FClear.No wind87%30.33 "Hg10 mi
11:58 PM
Jan 28
33 °FClear.2 mph85%30.34 "Hg10 mi
10:58 PM35 °FClear.No wind74%30.33 "Hg10 mi
9:58 PM36 °FClear.No wind72%30.33 "Hg10 mi
8:58 PM38 °FClear.No wind60%30.31 "Hg10 mi
7:58 PM39 °FClear.No wind55%30.30 "Hg10 mi
6:58 PM42 °FClear.2 mph49%30.29 "Hg10 mi
5:58 PM49 °FClear.5 mph31%30.27 "Hg10 mi
4:58 PM52 °FSunny.8 mph28%30.26 "Hg10 mi
3:58 PM53 °FSunny.10 mph26%30.24 "Hg10 mi
2:58 PM54 °FSunny.6 mph26%30.22 "Hg10 mi
1:58 PM52 °FSunny.15 mph26%30.22 "Hg10 mi
12:58 PM51 °FSunny.14 mph28%30.23 "Hg10 mi
11:58 AM47 °FSunny.13 mph31%30.26 "Hg10 mi
10:58 AM46 °FSunny.12 mph35%30.26 "Hg10 mi
9:58 AM42 °FSunny.13 mph41%30.27 "Hg10 mi
8:58 AM40 °FSunny.8 mph56%30.24 "Hg10 mi
7:58 AM35 °FSunny.6 mph74%30.21 "Hg10 mi
Weather by CustomWeather, © 2014

See weather overviewHow to use our weather pages